Satellite-Ground Cal/Val Site Overpasses Predictions

Prediction of Satellite NPP Overpassing Cal/Val Site: Antarctic Dome C

Ground Cal/Val Site Location: Latitude: -75.10, Longitude: 123.35; Satellite-Ground Site NADIR distance within 100 km.

Table of predicted overpasses for the next 14.0 days since TLE Epoch: 2/6/2021
Interval Starting Time Ending Time Minimum Distance Time Minimum Distance (km)
1 02/06/2021 07:31:03 02/06/2021 07:31:32 02/06/2021 07:31:18 2.20
2 02/09/2021 14:54:31 02/09/2021 14:54:59 02/09/2021 14:54:45 20.91
3 02/10/2021 14:35:48 02/10/2021 14:36:02 02/10/2021 14:35:55 86.05
4 02/11/2021 07:37:21 02/11/2021 07:37:48 02/11/2021 07:37:34 36.11
5 02/12/2021 07:18:35 02/12/2021 07:18:55 02/12/2021 07:18:45 73.92
6 02/14/2021 15:00:50 02/14/2021 15:01:14 02/14/2021 15:01:02 58.05
7 02/15/2021 14:41:59 02/15/2021 14:42:24 02/15/2021 14:42:12 51.20
8 02/16/2021 07:43:40 02/16/2021 07:44:01 02/16/2021 07:43:50 71.40
9 02/17/2021 07:24:47 02/17/2021 07:25:14 02/17/2021 07:25:01 36.65
